If you wish to contribute or participate in the discussions about articles you are invited to join SKYbrary as a registered user

 Actions

Al Udeid Air Base

From SKYbrary Wiki

OTBH
Airport
ICAO: OTBH – IATA: IUD
Summary
Name Al Udeid Air Base
Region Middle East
Territory Qatar QA.gif
Location Al-Udeid, Ad Dawhah
Serving Al-Udeid Air Base
Elevation 39.624 m
130 ft39.624 m
Coordinates 25° 7' 0.82" N, 51° 18' 54.74" E
Runways
Designator Length Width Surface ROPS
16/34 3750 m12,303.15 ft
45 m147.638 ft
ASP yes/yes


METAR
Observation OTBH 241656Z 07016KT 8000 BR FEW200 22/20 A2974 RMK AO2A SLP072 T02230202 $
Station Al Udeid
Date/Time 24 March 2019 16:56:00
Wind direction 70°
Wind speed 16 kts
Lowest cloud amount few clouds
Temperature 22.3°C
Dew point 20.2°C
Humidity 87%
QNH hPa
Weather condition n/a

Al Udeid Air Base is a military base southwest of Doha, Qatar, also known as Abu Nakhlah Airport. It houses Qatari Air Force, U.S. Air Force, and Royal Air Force personnel and assets.

Climatology

Hot Desert Climate (Köppen climate classification BWh)

Maps

Terrain

Loading map...

Airport Layout

Loading map...


Accidents & Serious Incidents at or in vicinity of OTBH

None on SKYbrary